Home   Weather   Sapporo   Past weeks

Flag for Japan Past Weather in Sapporo, Japan — Yesterday and Last 2 Weeks

Now
19 °F

Cold.


Feels Like: 12 °F
Forecast: 8 / 34 °F
Wind: 5 mph from Southeast

Location: Sapporo

Current Time: Feb 28, 2017 at 7:53:29 am

Latest Report: Feb 28, 2017 at 7:00 am


Visibility: N/A

Pressure: 30.37 "Hg

Humidity: 68%

Dew Point: 10 °F

Location of SapporoLocation

Past Weather in Sapporo — Graph

°F

Sapporo Temperature Yesterday

Maximum temperature yesterday: 31 °F (at 2:00 pm)
Minimum temperature yesterday: 13 °F (at 5:00 am)
Average temperature yesterday: 23 °F

High & Low Weather Summary for the Past Weeks

 TemperatureHumidityPressure
High46 °F (Feb 17, 1:00 am)92% (Feb 14, 8:00 pm)30.39 "Hg (Feb 14, 8:00 pm)
Low13 °F (Feb 27, 5:00 am)42% (Feb 18, 8:00 am)29.32 "Hg (Feb 23, 6:00 pm)
Average28 °F69%29.93 "Hg
* Reported Feb 13 6:00 am — Feb 28 6:00 am, Sapporo, Weather by CustomWeather, © 2017

Note: Actual official high and low records may vary slightly from our data, if they occured in-between our weather recording intervals... More about our weather records

Advertising

Sapporo Weather History for the Previous 24 Hours

Scroll right to see more
 ConditionsComfort  
Time TempWeatherWind HumidityBarometerVisibility
6:00 am
Tue, Feb 28
19 °FPassing clouds.6 mph67%30.37 "Hg12 mi
5:00 am18 °FCold.3 mph68%30.38 "HgN/A
4:00 am18 °FCold.5 mph67%30.38 "HgN/A
3:00 am19 °FClear.3 mph66%30.38 "Hg12 mi
2:00 am20 °FCold.3 mph64%30.38 "HgN/A
1:00 am20 °FCold.3 mph64%30.37 "HgN/A
12:00 am20 °FCold.3 mph68%30.37 "HgN/A
11:00 pm
Mon, Feb 27
22 °FCold.3 mph66%30.37 "HgN/A
10:00 pm22 °FCold.2 mph68%30.37 "HgN/A
9:00 pm24 °FPassing clouds.3 mph70%30.38 "Hg12 mi
8:00 pm25 °FChilly.3 mph67%30.39 "HgN/A
7:00 pm27 °FChilly.2 mph68%30.39 "HgN/A
6:00 pm28 °FPassing clouds.6 mph62%30.39 "Hg12 mi
5:00 pm29 °FChilly.5 mph58%30.38 "HgN/A
4:00 pm30 °FChilly.6 mph54%30.36 "HgN/A
3:00 pm31 °FPartly sunny.5 mph46%30.34 "Hg12 mi
2:00 pm31 °FChilly.6 mph43%30.33 "HgN/A
1:00 pm29 °FChilly.1 mph45%30.33 "HgN/A
12:00 pm29 °FPartly sunny.3 mph48%30.34 "Hg12 mi
11:00 am28 °FChilly.3 mph55%30.36 "HgN/A
10:00 am24 °FCold.2 mph54%30.36 "HgN/A
9:00 am20 °FPassing clouds.2 mph58%30.36 "Hg12 mi
8:00 am16 °FCold.3 mph64%30.37 "HgN/A
7:00 am14 °FCold.3 mph71%30.35 "HgN/A
Weather by CustomWeather, © 2017

See weather overviewHow to use our weather pages